Weather History for Anchorage Merrill, AK

Change the Weather History Date:

Tuesday, March 25, 2014

  Actual Average Record
Temperature  
Mean Temperature 28 °F -  
Max Temperature 42 °F 33 °F 43 °F (2003)
Min Temperature 14 °F 18 °F -4 °F (2007)
Degree Days  
Heating Degree Days 37    
Moisture  
Dew Point 12 °F    
Average Humidity 56    
Maximum Humidity 80    
Minimum Humidity 25    
Precipitation  
Precipitation 0.00 in - - ()
Snow  
Snow 0.00 in - - ()
Snow Depth 8.00 in    
Sea Level Pressure  
Sea Level Pressure 29.82 in    
Wind  
Wind Speed 1 mph (West)    
Max Wind Speed 6 mph    
Max Gust Speed -    
Visibility 10 miles    
Events      
Averages and records for this station are not official NWS values.
T = Trace of Precipitation, MM = Missing Value Source: NWS Daily Summary

Daily Weather History Graph

Daily Weather History Graph

Search for Another Location

Airport:

Trip Planner

Search our weather history database for the weather conditions in past years. The results will help you decide how hot, cold, wet, or windy it might be!

Date:

Astronomy

Mar. 25, 2014 Rise Set
Actual Time 7:44 AM AKDT 8:27 PM AKDT
Civil Twilight 7:00 AM AKDT 9:11 PM AKDT
Nautical Twilight 6:07 AM AKDT 10:05 PM AKDT
Astronomical Twilight 5:06 AM AKDT 11:06 PM AKDT
Moon 5:37 AM AKDT (3/25) 1:50 PM AKDT (3/25)
Length of Visible Light 14h 11m
Length of Day
12h 43m
Waning Crescent, 30% of the Moon is Illuminated
Mar 25
Waning Crescent
Mar 30
New
Apr 7
First Quarter
Apr 14
Full
Apr 21
Last Quarter

Hourly Weather History & Observations

Time (AKDT) Temp. Windchill Dew Point Humidity Pressure Visibility Wind Dir Wind Speed Gust Speed Precip Events Conditions
12:53 AM 23.0 °F - 15.1 °F 72% 29.91 in 10.0 mi Calm Calm - N/A   Clear
1:53 AM 19.9 °F - 12.0 °F 71% 29.91 in 8.0 mi Calm Calm - N/A   Clear
2:53 AM 19.0 °F - 10.9 °F 71% 29.90 in 10.0 mi Calm Calm - N/A   Clear
3:53 AM 17.1 °F - 10.0 °F 74% 29.90 in 10.0 mi Calm Calm - N/A   Clear
4:53 AM 14.0 °F - 9.0 °F 80% 29.90 in 10.0 mi Calm Calm - N/A   Clear
5:53 AM 15.1 °F - 9.0 °F 77% 29.88 in 9.0 mi Calm Calm - N/A   Clear
6:53 AM 15.1 °F 9.4 °F 8.1 °F 74% 29.87 in 10.0 mi Variable 3.5 mph - N/A   Clear
7:53 AM 15.1 °F 9.4 °F 8.1 °F 74% 29.87 in 8.0 mi Variable 3.5 mph - N/A   Clear
8:53 AM 16.0 °F 10.4 °F 7.0 °F 68% 29.86 in 10.0 mi Variable 3.5 mph - N/A   Clear
9:53 AM 21.0 °F 16.2 °F 10.9 °F 65% 29.86 in 10.0 mi Variable 3.5 mph - N/A   Clear
10:53 AM 27.0 °F - 15.1 °F 61% 29.84 in 10.0 mi Calm Calm - N/A   Clear
11:53 AM 32.0 °F - 14.0 °F 48% 29.84 in 10.0 mi Calm Calm - N/A   Clear
12:53 PM 36.0 °F - 9.0 °F 33% 29.83 in 10.0 mi Calm Calm - N/A   Clear
1:53 PM 37.0 °F - 8.1 °F 30% 29.81 in 10.0 mi Calm Calm - N/A   Clear
2:53 PM 39.0 °F 34.8 °F 10.9 °F 32% 29.80 in 10.0 mi WNW 5.8 mph - N/A   Clear
3:53 PM 39.9 °F 36.7 °F 10.0 °F 29% 29.78 in 10.0 mi WNW 4.6 mph - N/A   Clear
4:53 PM 42.1 °F 39.2 °F 8.1 °F 25% 29.77 in 10.0 mi WNW 4.6 mph - N/A   Clear
5:53 PM 39.9 °F 36.7 °F 12.9 °F 33% 29.74 in 10.0 mi West 4.6 mph - N/A   Clear
6:53 PM 37.0 °F 33.3 °F 18.0 °F 46% 29.74 in 10.0 mi West 4.6 mph - N/A   Clear
7:53 PM 36.0 °F - 17.1 °F 46% 29.73 in 10.0 mi Calm Calm - N/A   Clear
8:53 PM 30.9 °F 25.2 °F 18.0 °F 59% 29.73 in 10.0 mi South 5.8 mph - N/A   Clear
9:53 PM 30.0 °F - 15.1 °F 54% 29.73 in 10.0 mi Calm Calm - N/A   Clear
10:53 PM 28.0 °F - 14.0 °F 56% 29.72 in 10.0 mi Calm Calm - N/A   Clear
11:53 PM 25.0 °F - 12.0 °F 58% 29.71 in 10.0 mi Calm Calm - N/A   Clear